TimeMDT,TemperatureF,Dew PointF,Humidity,Sea Level PressureIn,VisibilityMPH,Wind Direction,Wind SpeedMPH,Gust SpeedMPH,PrecipitationIn,Events,Conditions,WindDirDegrees,DateUTC
12:53 AM,69.1,54.0,58,29.94,10.0,ESE,9.2,-,N/A,,Scattered Clouds,120,2013-07-24 06:53:00
1:53 AM,71.1,55.9,59,29.92,10.0,SSE,18.4,24.2,N/A,,Scattered Clouds,150,2013-07-24 07:53:00
2:53 AM,69.1,55.9,63,29.92,10.0,SSE,15.0,24.2,N/A,,Scattered Clouds,150,2013-07-24 08:53:00
3:53 AM,69.1,57.9,68,29.90,10.0,South,15.0,25.3,N/A,,Scattered Clouds,170,2013-07-24 09:53:00
4:53 AM,69.1,57.9,68,29.92,10.0,SW,18.4,28.8,N/A,,Scattered Clouds,220,2013-07-24 10:53:00
5:53 AM,66.9,57.9,73,29.95,10.0,South,8.1,-,N/A,,Scattered Clouds,190,2013-07-24 11:53:00
6:53 AM,66.9,59.0,76,29.95,10.0,SSE,6.9,-,N/A,,Mostly Cloudy,150,2013-07-24 12:53:00
7:53 AM,73.0,59.0,61,29.95,10.0,Calm,Calm,-,N/A,,Mostly Cloudy,0,2013-07-24 13:53:00
8:53 AM,75.0,60.1,60,29.96,10.0,Variable,3.5,-,N/A,,Mostly Cloudy,0,2013-07-24 14:53:00
9:53 AM,79.0,59.0,50,29.96,10.0,SSE,21.9,27.6,N/A,,Mostly Cloudy,150,2013-07-24 15:53:00
10:53 AM,79.0,59.0,50,29.96,10.0,South,19.6,25.3,N/A,,Mostly Cloudy,170,2013-07-24 16:53:00
11:53 AM,82.0,57.9,44,29.96,10.0,SSE,19.6,29.9,N/A,,Mostly Cloudy,150,2013-07-24 17:53:00
12:53 PM,84.0,57.0,40,29.91,10.0,SE,13.8,20.7,N/A,,Mostly Cloudy,140,2013-07-24 18:53:00
1:53 PM,82.0,57.9,44,29.91,10.0,South,21.9,26.5,N/A,,Mostly Cloudy,180,2013-07-24 19:53:00
2:53 PM,79.0,59.0,50,29.92,10.0,South,16.1,24.2,N/A,,Mostly Cloudy,190,2013-07-24 20:53:00
3:53 PM,80.1,59.0,48,29.92,10.0,WSW,9.2,-,N/A,,Mostly Cloudy,250,2013-07-24 21:53:00
4:40 PM,78.8,51.8,39,30.17,7.0,SSW,33.4,44.9,N/A,,Widespread Dust,200,2013-07-24 22:40:00
4:53 PM,77.0,48.9,37,29.93,7.0,SSW,36.8,44.9,N/A,,Mostly Cloudy,200,2013-07-24 22:53:00
5:53 PM,79.0,48.9,35,29.89,10.0,SSW,20.7,-,N/A,,Mostly Cloudy,200,2013-07-24 23:53:00
6:53 PM,80.1,44.1,28,29.88,10.0,South,15.0,-,N/A,,Mostly Cloudy,170,2013-07-25 00:53:00
7:53 PM,75.0,48.0,38,29.88,10.0,SSE,9.2,18.4,N/A,,Mostly Cloudy,160,2013-07-25 01:53:00
8:53 PM,72.0,48.0,43,29.90,10.0,SE,20.7,26.5,N/A,,Mostly Cloudy,140,2013-07-25 02:53:00
9:53 PM,71.1,48.9,45,29.92,10.0,SE,12.7,-,N/A,,Mostly Cloudy,130,2013-07-25 03:53:00
10:53 PM,66.9,52.0,59,29.96,10.0,East,16.1,-,N/A,,Overcast,100,2013-07-25 04:53:00
11:00 PM,68.0,51.8,56,30.20,10.0,ENE,24.2,34.5,N/A,,Overcast,70,2013-07-25 05:00:00
11:53 PM,60.1,54.0,80,29.97,10.0,East,15.0,24.2,N/A,,Overcast,80,2013-07-25 05:53:00